AirNav   Air Wisconsin pilot careers
 
 1501 users online  

00R Livingston Municipal Airport
Livingston, Texas, USA

GOING TO LIVINGSTON?


FAA INFORMATION EFFECTIVE 06 DECEMBER 2018

Location

FAA Identifier: 00R
Lat/Long: 30-41-09.1000N / 095-01-04.5000W
30-41.151667N / 095-01.075000W
30.6858611 / -95.0179167
(estimated)
Elevation: 150.7 ft. / 45.9 m (surveyed)
Variation: 06E (1985)
From city: 5 miles SW of LIVINGSTON, TX
Time zone: UTC -6 (UTC -5 during Daylight Saving Time)
Zip code: 77351

Airport Operations

Airport use: Open to the public
Activation date: 10/1969
Control tower: no
ARTCC: HOUSTON CENTER
FSS: MONTGOMERY COUNTY FLIGHT SERVICE STATION
NOTAMs facility: CXO (NOTAM-D service available)
Attendance: MON-FRI 0800-1700, ALL SAT-SUN 1200-1700
Wind indicator: lighted
Segmented circle: yes
Lights: SS-SR
Beacon: white-green (lighted land airport)
Operates sunset to sunrise.

Airport Communications

CTAF/UNICOM: 122.7
WX AWOS-3 at 6R3 (20 nm S): 119.325 (281-593-1754)
  • APCH/DEP SERVICE PROVIDED BY HOUSTON ARTCC ON FREQS 125.175/285.575 (LUFKIN RCAG).

Nearby radio navigation aids

VOR radial/distance  VOR name  Freq  Var
LFKr203/32.5LUFKIN VORTAC112.1005E
DASr322/35.5DAISETTA VORTAC116.9005E

 
NDB name  Hdg/Dist  Freq  Var  ID
HUNTSVILLE090/29.730806EUTS ..- - ...

Airport Services

Fuel available: 100LL
Parking: hangars and tiedowns
Airframe service: MAJOR
Powerplant service: MAJOR
Bottled oxygen: NONE
Bulk oxygen: NONE

Runway Information

Runway 12/30

Dimensions: 3704 x 60 ft. / 1129 x 18 m
Surface: asphalt, in good condition
Weight bearing capacity: 
Single wheel: 11.0
Runway edge lights: medium intensity
RUNWAY 12  RUNWAY 30
Latitude: 30-41.349980N30-40.952607N
Longitude: 095-01.344160W095-00.807090W
Elevation: 150.2 ft.150.4 ft.
Traffic pattern: leftleft
Runway heading: 125 magnetic, 131 true305 magnetic, 311 true
Markings: nonprecision, in good conditionnonprecision, in good condition
Touchdown point: yes, no lightsyes, no lights
Obstructions: none85 ft. trees, 1200 ft. from runway, 12:1 slope to clear

Airport Ownership and Management from official FAA records

Ownership: Publicly-owned
Owner: CITY OF LIVINGSTON
200 WEST CHURCH
LIVINGSTON, TX 77351
Phone 936-327-4311
Manager: BILLY S. WIGGINS
200 WEST CHURCH
LIVINGSTON, TX 77351
Phone 936-327-4311

Airport Operational Statistics

Aircraft based on the field: 26
Single engine airplanes: 23
Multi engine airplanes: 1
Ultralights: 2
    
Aircraft operations: avg 25/day *
75% local general aviation
25% transient general aviation
* for 12-month period ending 02 December 2015

Instrument Procedures

NOTE: All procedures below are presented as PDF files. If you need a reader for these files, you should download the free Adobe Reader.

NOT FOR NAVIGATION. Please procure official charts for flight.
FAA instrument procedures published for use from 6 December 2018 at 0901Z to 3 January 2019 at 0900Z.

 
IAPs - Instrument Approach Procedures
RNAV (GPS) RWY 30   download (161KB)
NOTE: Special Take-Off Minimums/Departure Procedures apply   download (70KB)

Other nearby airports with instrument procedures:

6R3 - Cleveland Municipal Airport (20 nm S)
KCXO - Conroe-North Houston Regional Airport (29 nm SW)
KUTS - Huntsville Municipal Airport (30 nm W)
KLFK - Angelina County Airport (36 nm NE)
T78 - Liberty Municipal Airport (40 nm SE)
 
Loc | Ops | Rwys | IFR | FBO | Links
Com | Nav | Svcs | Stats | Notes


 
Area around 00R (Livingston Municipal Airport)
 
Road maps at: MapQuest Bing Google
 
Aerial photo
WARNING: Photo may not be current or correct
Aerial photo of 00R (Livingston Municipal Airport)
Photo taken 08-Jul-2018
looking southeast.

Do you have a better or more recent aerial photo of Livingston Municipal Airport that you would like to share? If so, please send us your photo.

 
Sectional chart

 
Airport distance calculator
Flying to Livingston Municipal Airport? Find the distance to fly.

From to 00R

Sunrise and sunset
Times for 17-Dec-2018
 Local
(UTC-6)
 Zulu
(UTC)
Morning civil twilight06:4612:46
Sunrise07:1213:12
Sunset17:2023:20
Evening civil twilight17:4723:47

Current date and time
Zulu (UTC)  17-Dec-2018 16:48:27
Local (UTC-6)  17-Dec-2018 10:48:27
 
METAR
K6R3 
20nm S 
171635Z AUTO 00000KT 7SM CLR 13/12 A3030 RMK AO2 T01280121
KCXO 
29nm SW 
171553Z 00000KT 8SM CLR 12/11 A3031 RMK AO2 SLP264 T01170111
KUTS 
29nm W 
171553Z AUTO 22005KT 10SM CLR 12/06 A3029 RMK AO2 SLP257 T01220056
KLFK 
36nm NE 
171553Z AUTO 15004KT 10SM CLR 10/10 A3027 RMK AO2 SLP250 T01000100
TAF
KCXO 
29nm SW 
171523Z 1715/1812 VRB04KT P6SM SCT180 BKN250 FM180700 00000KT 3SM BR SCT250
KUTS 
29nm W 
171135Z 1712/1812 VRB04KT P6SM BKN180 FM180900 00000KT 5SM BR FEW250
KLFK 
36nm NE 
171355Z 1714/1812 00000KT P6SM OVC250 TEMPO 1714/1715 3SM BR FM171500 VRB03KT P6SM BKN250 FM171800 23004KT P6SM BKN250 FM180000 00000KT P6SM BKN250 FM181000 00000KT 5SM BR BKN250
NOTAMs
Click for the latest NOTAMs
NOTAMs are issued by the DoD/FAA and will open in a separate window not controlled by AirNav.

 

 
 

FBO, Fuel Providers, and Aircraft Ground Support

  
 Business Name 
 
 Contact 
 
 Services / Description 
 
Fuel Prices
 
Comments
  
Burrows Air 936-967-5858
no information available

If you are affiliated with Burrows Air and would like to show here your services, contact info, web link, logo, and more, click here
100LL
SS $4.68 
 Updated 11-Dec-2018
 
   write
SS=Self service
Update Fuel Prices
 

Would you like to see your business listed on this page?

 If your business provides an interesting product or service to pilots, flight crews, aircraft, or users of the Livingston Municipal Airport, you should consider listing it here.  To start the listing process, click on the button below
 
Add a business
 

Other Pages about Livingston Municipal Airport

Update a link
 
Copyright © AirNav, LLC. All rights reserved. Privacy Policy  Contact